Home   Weather   Springe   Past weeks

Flag for Germany Past Weather in Springe, Lower Saxony, Germany — Yesterday and Last 2 Weeks

36 °F


Feels Like: 36 °F
Forecast: 42 / 55 °F
Wind: 1 mph from East

Location: Wunstorf Airport

Current Time: Oct 26, 2016 at 7:54:24 AM

Latest Report: Oct 26, 2016 at 6:20 AM

Visibility: 2 mi

Pressure: 30.36 "Hg

Humidity: 100%

Dew Point: 36 °F

Location of SpringeLocation

Past Weather in Springe — Graph


Springe Temperature Yesterday

Maximum temperature yesterday: 48 °F (at 3:01 PM)
Minimum temperature yesterday: 36 °F (at 11:20 PM)
Average temperature yesterday: 46 °F

High & Low Weather Summary for the Past Weeks

High63 °F (Oct 16, 2:20 PM)100% (Oct 11, 7:20 PM)30.36 "Hg (Oct 11, 7:20 PM)
Low32 °F (Oct 26, 2:20 AM)50% (Oct 23, 2:20 PM)29.74 "Hg (Oct 15, 6:20 AM)
Average47 °F89%30.04 "Hg
* Reported Oct 11 6:20 AM — Oct 26 6:20 AM, Springe, Weather by CustomWeather, © 2016

Note: Actual official high and low records may vary slightly from our data, if they occured in-between our weather recording intervals... More about our weather records


Springe Weather History for the Previous 24 Hours

Scroll right to see more
Time TempWeatherWind HumidityBarometerVisibility
6:20 AM
Wed, Oct 26
36 °FFog.1 mph100%30.36 "Hg2 mi
5:50 AM34 °FFog.No wind100%30.36 "Hg2 mi
5:20 AM34 °FPassing clouds.No wind100%30.36 "Hg1 mi
4:20 AM34 °FChilly.3 mph100%30.36 "HgN/A
3:20 AM34 °FChilly.3 mph93%30.36 "HgN/A
2:20 AM32 °FChilly.1 mph100%30.36 "HgN/A
1:20 AM36 °FChilly.2 mph93%30.33 "HgN/A
12:20 AM36 °FChilly.1 mph100%30.33 "HgN/A
11:20 PM
Tue, Oct 25
36 °FChilly.No wind100%30.33 "HgN/A
10:20 PM39 °FChilly.1 mph100%30.33 "HgN/A
9:20 PM41 °FQuite cool.1 mph93%30.30 "HgN/A
8:20 PM46 °FCool.No wind87%30.30 "HgN/A
7:20 PM46 °FPassing clouds.3 mph93%30.30 "HgN/A
6:20 PM46 °FFog.7 mph93%30.27 "Hg3 mi
5:48 PM48 °FFog.3 mph87%30.27 "Hg3 mi
5:20 PM48 °FFog.3 mph87%30.24 "Hg3 mi
4:20 PM48 °FFog.5 mph94%30.21 "Hg2 mi
4:00 PM48 °FFog.6 mph94%30.21 "Hg2 mi
3:20 PM48 °FFog.6 mph94%30.21 "Hg2 mi
3:01 PM48 °FFog.5 mph87%30.21 "Hg2 mi
2:20 PM46 °FFog.6 mph100%30.21 "Hg1 mi
1:46 PM46 °FFog.6 mph100%30.18 "Hg2 mi
1:20 PM46 °FDrizzle. Fog.6 mph93%30.18 "Hg1 mi
12:20 PM46 °FDrizzle. Fog.9 mph93%30.18 "Hg1 mi
11:20 AM46 °FDrizzle. Fog.7 mph93%30.15 "Hg1 mi
10:20 AM46 °FDrizzle. Fog.5 mph93%30.15 "Hg2 mi
9:20 AM46 °FFog.2 mph93%30.12 "Hg2 mi
9:03 AM45 °FDrizzle. Fog.3 mph100%30.12 "Hg1 mi
8:20 AM45 °FDrizzle. Fog.5 mph100%30.09 "Hg1 mi
8:04 AM45 °FDrizzle. Fog.6 mph100%30.09 "Hg1 mi
7:20 AM45 °FDrizzle. Fog.7 mph100%30.07 "Hg1 mi
Weather by CustomWeather, © 2016

See weather overviewHow to use our weather pages